Location: Caltech
(34.1382°N, 118.1253°W)
Time: 23:23:43
(UTC-07:00)

Cosmos 2219 Rocket - Visible Passes

Search period start: 21 October 2014 00:00
Search period end: 31 October 2014 00:00
Orbit: 827 x 848 km, 71.0° (Epoch: 21 October)

Date Brightness Start Highest point End Pass type
(mag) Time Alt. Az. Time Alt. Az. Time Alt. Az.
21 Oct 5.1 04:13:17 10° NNE 04:15:10 12° NE 04:17:02 10° ENE visible
21 Oct 2.2 05:54:11 10° NNW 05:59:53 90° WSW 06:05:33 10° SSE visible
21 Oct 2.6 18:57:17 10° S 19:02:27 40° ESE 19:07:40 10° NE visible
21 Oct 4.3 20:42:02 10° WSW 20:46:30 24° WNW 20:51:01 10° N visible
22 Oct 5.1 03:57:42 10° NE 03:58:50 11° NE 03:59:59 10° ENE visible
22 Oct 2.2 05:37:55 10° NNW 05:43:38 84° ENE 05:49:18 10° SSE visible
22 Oct 2.7 18:41:09 10° S 18:46:13 37° ESE 18:51:21 10° NE visible
22 Oct 4.2 20:25:35 10° WSW 20:30:12 26° WNW 20:34:52 10° N visible
23 Oct 2.3 05:21:41 10° NNW 05:27:23 77° ENE 05:33:02 10° SSE visible
23 Oct 2.9 18:25:02 10° SSE 18:30:00 34° ESE 18:35:00 10° NE visible
23 Oct 4.1 20:09:09 10° WSW 20:13:55 28° WNW 20:18:43 10° N visible
24 Oct 2.4 05:05:56 13° NNW 05:11:07 71° ENE 05:16:45 10° SSE visible
24 Oct 4.0 19:52:44 10° WSW 19:57:37 30° WNW 20:02:33 10° N visible
25 Oct 2.5 04:52:08 31° N 04:54:51 65° ENE 05:00:28 10° SSE visible
25 Oct 3.8 06:35:30 10° WNW 06:38:08 13° W 06:40:46 10° SW visible
25 Oct 3.9 19:36:20 10° SW 19:41:20 33° WNW 19:46:23 10° N visible
26 Oct 2.6 04:38:18 59° NE 04:38:36 60° ENE 04:44:10 10° SSE visible
26 Oct 3.7 06:20:10 13° WNW 06:21:56 15° W 06:24:58 10° SW visible
26 Oct 3.7 19:19:57 10° SW 19:25:03 35° WNW 19:30:12 10° N visible
27 Oct 3.4 04:24:21 37° ESE 04:24:21 37° ESE 04:27:51 10° SE visible
27 Oct 3.7 06:06:12 16° WSW 06:06:12 16° WSW 06:09:06 10° SW visible
27 Oct 3.6 19:03:35 10° SW 19:08:46 38° WNW 19:14:01 10° N visible
28 Oct 4.4 04:10:16 17° SE 04:10:16 17° SE 04:11:32 10° SE visible
28 Oct 4.0 05:52:07 13° SW 05:52:07 13° SW 05:53:10 10° SW visible
28 Oct 3.5 18:47:13 10° SW 18:52:29 41° WNW 18:57:49 10° N visible
29 Oct 3.4 18:30:52 10° SW 18:36:12 45° WNW 18:41:37 10° N visible
